Showing default

COSMOS 87, 1585

Orbit data source: Space-Track

COSMOS 87, 1585 is a payload satellite owned by OKB-10 (CIS) in LEO that was launched on Sat, 18 Sep 1965 UTC via a KOSMOS 65S3 launch vehicle from the Tyuratam Missile And Space Complex (TTMTR). Payload-class satellites include a variety of spacecraft equipped with specific instruments for various scientific and technological missions. These include communications satellites like Starlink; space stations such as the ISS; scientific satellites like the Hubble; Earth observation satellites from companies like Planet Labs, Umbra, and HawkEye 360; GPS; miniature CubeSats for education and research; and military/defense satellites.

Loading next visibility...
Identifier
1585, 1965-073B
Orbit
LEO
Country
Flag of CISCIS
Related business
Manufacturer
OKB-10
Mission
Spacecraft
Bus & Motor
STRELA-1 11F610, Unknown motor
Mass
50 kg wet, 50 kg dry
Launch date (UTC)
1965-09-18 (61 years ago)
Launch vehicle
KOSMOS 65S3
Launch site
Tyuratam Missile And Space Complex (TTMTR)
Object type
Payload
Rocket body
Debris
Shape & HBR
Unknown
Radar Cross Section
Medium (>0.1 m² and <1 m²)

Expand to show TLE details & history
Last TLE update: 11 hours ago

TLE from 11 hours ago
0 COSMOS 87
1 01585U 65073B   26119.56638409 -.00000112  00000-0 -11356-3 0  9995
2 01585  56.0631  54.4354 0202917 322.2806 210.4104 12.47462997759689
Epoch: 2026-04-29T13:35Z
TLE epoch observation values (Epoch: 2026-04-29T13:35:35.585Z)
Latitude
6.97441°
Longitude
168.31259°
Altitude
1,613.787 km
Speed
7.002 km/s
True Right ascension
15h 18m 56s
True Declination
6° 56' 15"
Sunlit
Object was in full shadow at epoch
Visualization orbit readout
Latitude
Unknown
Longitude
Unknown
Altitude
Unknown
Speed
Unknown
Apparent Right ascension
Unknown
Apparent Declination
Unknown
Sunlit
N/A
Visualization observer readout
Local Sidereal Time
08:36:53
Azimuth
Unknown
Elevation
Unknown
Doppler factor
Unknown
Orbital elements
Apogee altitude
1,634.299 km
Perigee altitude
1,315.595 km
Semi-major axis
7,853.084 km
Eccentricity
0.02029
Inclination
56.0631°
RAAN
54.4354°
Arg. of periapsis
322.2806°
True anomaly
209.25867°
Mean anomaly
210.4104°
Eccentric anomaly
209.83204°
Mean motion
3.11877 °/min
Orbital period
115.43 mins
BSTAR
-0.00011356
Loading maneuver chart data...
Computing Atmospheric mass density...
Loading historical data...
Loading historical data...
Loading historical data...
Loading historical data...
Loading historical data...
Loading historical data...
Loading historical data...

Documentation

Showing up to 5 results
|